GW1362 Weather Reports


time (UTC)temp
C
wind
direction
speed
KPH
gust
KPH
rain 1hr
cm
rain 24hr
cm
rain mn
cm
humidity
%
barometer
mb
20260505153052 16 0 0.0 3.2 0.00 0.00 0.00 30 1011.2
20260505152536 16 44 0.0 6.4 0.00 0.00 0.00 31 1011.3
20260505152036 16 0 0.0 6.4 0.00 0.00 0.00 30 1011.4
20260505151544 17 42 1.6 6.4 0.00 0.00 0.00 30 1011.3
20260505151037 17 352 1.6 6.4 0.00 0.00 0.00 30 1011.2
20260505150536 17 0 0.0 3.2 0.00 0.00 0.00 30 1011.3
20260505140536 15 0 0.0 4.8 0.00 0.00 0.00 36 1011.6
20260505125036 11 0 0.0 1.6 0.00 0.00 0.00 40 1011.6
20260505124600 11 0 0.0 1.6 0.00 0.00 0.00 41 1011.6
20260505124036 10 0 0.0 1.6 0.00 0.00 0.00 42 1011.6
20260505123538 10 0 0.0 1.6 0.00 0.00 0.00 42 1011.6
20260505123059 10 0 0.0 1.6 0.00 0.00 0.00 43 1011.6
20260505122536 11 0 0.0 1.6 0.00 0.00 0.00 42 1011.4
20260505122036 11 0 0.0 4.8 0.00 0.00 0.00 40 1011.2
20260505121553 11 0 0.0 4.8 0.00 0.00 0.00 40 1011.2
20260505121036 11 0 0.0 11.3 0.00 0.00 0.00 40 1011.1
20260505120536 11 0 0.0 11.3 0.00 0.00 0.00 40 1011.1
20260505120109 11 105 1.6 11.3 0.00 0.00 0.00 40 1011.0
20260505115535 11 0 0.0 3.2 0.00 0.00 0.00 40 1011.0
20260505115036 11 0 0.0 3.2 0.00 0.00 0.00 41 1011.0
20260505114549 11 0 0.0 1.6 0.00 0.00 0.00 42 1011.2
20260505114036 11 0 0.0 1.6 0.00 0.00 0.00 41 1011.3
20260505113536 11 0 0.0 1.6 0.00 0.00 0.00 42 1011.4
20260505113047 11 0 0.0 3.2 0.00 0.00 0.00 41 1011.4
20260505112536 11 0 0.0 3.2 0.00 0.00 0.00 41 1011.4
20260505112036 11 0 0.0 1.6 0.00 0.00 0.00 39 1011.2
20260505111553 11 0 0.0 1.6 0.00 0.00 0.00 39 1011.2
20260505111036 11 0 0.0 0.0 0.00 0.00 0.00 39 1011.2
20260505110535 12 0 0.0 0.0 0.00 0.00 0.00 38 1011.1
20260505102036 13 0 0.0 3.2 0.00 0.00 0.00 33 1010.9
20260505101552 14 0 0.0 9.7 0.00 0.00 0.00 33 1010.7
20260505101036 14 247 0.0 9.7 0.00 0.00 0.00 33 1010.6
20260505100536 14 283 0.0 6.4 0.00 0.00 0.00 32 1010.8
20260505100053 14 0 1.6 6.4 0.00 0.00 0.00 32 1010.7
20260505095536 14 258 0.0 9.7 0.00 0.00 0.00 32 1010.7
20260505095035 15 259 0.0 14.5 0.00 0.00 0.00 31 1010.7
20260505094553 15 263 3.2 14.5 0.00 0.00 0.00 31 1010.8
20260505094039 15 0 0.0 8.0 0.00 0.00 0.00 30 1010.7
20260505093537 15 267 0.0 12.9 0.00 0.00 0.00 29 1010.6
20260505093054 15 297 3.2 12.9 0.00 0.00 0.00 29 1010.8
20260505092537 15 269 1.6 9.7 0.00 0.00 0.00 29 1010.7
20260505092036 15 271 1.6 9.7 0.00 0.00 0.00 29 1010.6
20260505091548 15 290 1.6 12.9 0.00 0.00 0.00 29 1010.7
20260505091036 15 270 1.6 12.9 0.00 0.00 0.00 29 1010.7
20260505090536 15 0 4.8 12.9 0.00 0.00 0.00 29 1010.8
20260505090051 15 256 3.2 11.3 0.00 0.00 0.00 30 1010.8
20260505085537 15 264 1.6 6.4 0.00 0.00 0.00 30 1010.9
20260505085036 15 309 3.2 8.0 0.00 0.00 0.00 30 1011.0
20260505084545 15 278 1.6 9.7 0.00 0.00 0.00 30 1011.2
20260505084035 15 296 1.6 16.1 0.00 0.00 0.00 29 1011.2
20260505083535 15 292 3.2 16.1 0.00 0.00 0.00 29 1011.0
20260505083054 15 258 1.6 16.1 0.00 0.00 0.00 29 1011.0
20260505082536 15 299 3.2 16.1 0.00 0.00 0.00 28 1011.1
20260505082036 15 271 6.4 16.1 0.00 0.00 0.00 28 1011.2
20260505081551 16 269 4.8 12.9 0.00 0.00 0.00 28 1011.2
20260505081036 16 280 1.6 14.5 0.00 0.00 0.00 27 1011.4
20260505080535 16 334 3.2 14.5 0.00 0.00 0.00 27 1011.6
20260505080054 16 259 1.6 14.5 0.00 0.00 0.00 27 1011.5
20260505075538 16 264 1.6 20.9 0.00 0.00 0.00 26 1011.4
20260505075035 16 275 6.4 20.9 0.00 0.00 0.00 26 1011.4
20260505074556 16 257 3.2 17.7 0.00 0.00 0.00 27 1011.5
20260505074035 16 311 4.8 17.7 0.00 0.00 0.00 26 1011.5
20260505073535 16 275 3.2 9.7 0.00 0.00 0.00 26 1011.3
20260505073102 16 0 1.6 9.7 0.00 0.00 0.00 26 1011.1
20260505072538 16 234 0.0 4.8 0.00 0.00 0.00 26 1011.0
20260505072037 16 240 0.0 4.8 0.00 0.00 0.00 26 1011.0
20260505071553 16 0 0.0 6.4 0.00 0.00 0.00 25 1011.1
20260505071037 16 290 0.0 6.4 0.00 0.00 0.00 26 1011.0
20260505070536 17 0 1.6 19.3 0.00 0.00 0.00 25 1011.1
20260505070049 17 0 4.8 20.9 0.00 0.00 0.00 25 1011.2
20260505065536 17 294 6.4 20.9 0.00 0.00 0.00 25 1011.1
20260505065035 17 240 3.2 22.5 0.00 0.00 0.00 25 1011.0
20260505064547 17 284 6.4 22.5 0.00 0.00 0.00 25 1010.9
20260505064035 17 306 8.0 22.5 0.00 0.00 0.00 25 1010.8
20260505063536 17 281 3.2 9.7 0.00 0.00 0.00 26 1010.9
20260505063049 16 340 3.2 9.7 0.00 0.00 0.00 26 1010.9
20260505062535 16 299 1.6 17.7 0.00 0.00 0.00 28 1010.8
20260505062035 15 0 3.2 17.7 0.00 0.00 0.00 30 1010.8
20260505061552 15 228 0.0 4.8 0.00 0.00 0.00 31 1010.9
20260505061036 15 217 0.0 4.8 0.00 0.00 0.00 31 1010.8
20260505060536 15 0 0.0 3.2 0.00 0.00 0.00 31 1010.8
20260505060054 15 0 0.0 4.8 0.00 0.00 0.00 30 1010.7
20260505055536 15 0 1.6 4.8 0.00 0.00 0.00 30 1010.7
20260505055036 15 0 0.0 3.2 0.00 0.00 0.00 30 1010.9
20260505054608 15 0 0.0 3.2 0.00 0.00 0.00 30 1010.8
20260505054036 15 297 0.0 3.2 0.00 0.00 0.00 29 1010.6
20260505053537 15 0 0.0 6.4 0.00 0.00 0.00 30 1010.5
20260505053103 15 0 0.0 6.4 0.00 0.00 0.00 30 1010.5
20260505052535 15 0 0.0 4.8 0.00 0.00 0.00 29 1010.3
20260505052035 15 197 0.0 1.6 0.00 0.00 0.00 30 1010.5
20260505051550 16 0 0.0 3.2 0.00 0.00 0.00 29 1010.5
20260505051036 16 0 0.0 3.2 0.00 0.00 0.00 29 1010.4
20260505050538 16 0 0.0 1.6 0.00 0.00 0.00 27 1010.4
20260505041556 17 0 0.0 1.6 0.00 0.00 0.00 25 1010.4
20260505041036 17 0 0.0 6.4 0.00 0.00 0.00 24 1010.5
20260505040536 18 0 0.0 6.4 0.00 0.00 0.00 24 1010.4
20260505040056 18 0 0.0 6.4 0.00 0.00 0.00 24 1010.6
20260505035537 18 0 0.0 1.6 0.00 0.00 0.00 23 1010.6
20260505035035 18 0 0.0 1.6 0.00 0.00 0.00 24 1010.7
20260505034549 18 0 0.0 3.2 0.00 0.00 0.00 23 1010.7
20260505034036 18 0 0.0 4.8 0.00 0.00 0.00 23 1010.7
20260505033536 18 0 0.0 4.8 0.00 0.00 0.00 22 1010.7
20260505033050 18 275 0.0 11.3 0.00 0.00 0.00 22 1010.4
20260505032535 18 0 3.2 11.3 0.00 0.00 0.00 22 1010.3
20260505032035 18 0 0.0 16.1 0.00 0.00 0.00 22 1010.3
20260505031605 19 248 0.0 16.1 0.00 0.00 0.00 21 1010.1
20260505031035 19 232 0.0 12.9 0.00 0.00 0.00 21 1010.0
20260505030537 19 277 3.2 12.9 0.00 0.00 0.00 21 1010.0
20260505030052 19 336 3.2 11.3 0.00 0.00 0.00 21 1010.1
20260505025536 19 236 0.0 11.3 0.00 0.00 0.00 20 1010.0
20260505025035 19 281 3.2 11.3 0.00 0.00 0.00 20 1010.1
20260505024554 19 0 0.0 8.0 0.00 0.00 0.00 19 1010.0
20260505024038 19 253 0.0 8.0 0.00 0.00 0.00 19 1010.0
20260505023536 19 291 1.6 8.0 0.00 0.00 0.00 19 1010.0
20260505023056 19 0 1.6 9.7 0.00 0.00 0.00 19 1009.8
20260505022536 19 262 1.6 11.3 0.00 0.00 0.00 18 1009.8
20260505022037 19 286 3.2 11.3 0.00 0.00 0.00 18 1009.8
20260505021550 20 257 0.0 11.3 0.00 0.00 0.00 18 1009.8
20260505021036 20 315 0.0 4.8 0.00 0.00 0.00 17 1009.8
20260505020537 20 0 0.0 8.0 0.00 0.00 0.00 17 1009.8
20260505020045 20 273 0.0 8.0 0.00 0.00 0.00 17 1009.8
20260505015537 20 348 3.2 12.9 0.00 0.00 0.00 16 1009.8
20260505015037 20 318 1.6 14.5 0.00 0.00 0.00 16 1009.6
20260505014546 20 0 0.0 14.5 0.00 0.00 0.00 16 1009.5
20260505014036 20 0 4.8 14.5 0.00 0.00 0.00 16 1009.4
20260505013536 20 257 3.2 12.9 0.00 0.00 0.00 15 1009.4
20260505013106 20 315 3.2 12.9 0.00 0.00 0.00 15 1009.3
20260505012535 21 298 3.2 19.3 0.00 0.00 0.00 15 1009.3
20260505012036 21 360 4.8 19.3 0.00 0.00 0.00 15 1009.2
20260505011551 21 293 1.6 16.1 0.00 0.00 0.00 15 1009.3
20260505011037 21 318 3.2 16.1 0.00 0.00 0.00 15 1009.2
20260505010537 21 322 4.8 16.1 0.00 0.00 0.00 14 1009.2
20260505010049 21 329 1.6 9.7 0.00 0.00 0.00 14 1009.2
20260505005536 21 333 1.6 19.3 0.00 0.00 0.00 14 1009.3
20260505005037 21 295 3.2 19.3 0.00 0.00 0.00 14 1009.3
20260505004552 21 294 4.8 12.9 0.00 0.00 0.00 14 1009.3
20260505004037 21 263 1.6 12.9 0.00 0.00 0.00 14 1009.4
20260505003540 21 336 3.2 12.9 0.00 0.00 0.00 14 1009.3
20260505003043 21 277 1.6 8.0 0.00 0.00 0.00 14 1009.5
20260505002538 21 325 1.6 11.3 0.00 0.00 0.00 14 1009.5
20260505002036 21 346 3.2 11.3 0.00 0.00 0.00 14 1009.6
20260505001554 21 255 1.6 11.3 0.00 0.00 0.00 15 1009.6
20260505001035 21 352 3.2 12.9 0.00 0.00 0.00 15 1009.6
20260505000536 21 0 1.6 16.1 0.00 0.00 0.00 15 1009.6
20260505000107 21 281 8.0 16.1 0.00 0.00 0.00 16 1009.6
20260504235536 21 226 6.4 12.9 0.00 0.00 0.00 16 1009.6
20260504235037 21 225 4.8 12.9 0.00 0.00 0.00 16 1009.6
20260504234552 21 269 3.2 9.7 0.00 0.00 0.00 16 1009.7
20260504234035 21 325 1.6 19.3 0.00 0.00 0.00 15 1009.7
20260504233536 21 9 4.8 19.3 0.00 0.00 0.00 15 1009.7
20260504233055 21 336 6.4 19.3 0.00 0.00 0.00 15 1009.8
20260504232536 21 338 8.0 14.5 0.00 0.00 0.00 14 1009.8
20260504232035 21 322 3.2 19.3 0.00 0.00 0.00 15 1009.8
20260504231554 21 325 6.4 19.3 0.00 0.00 0.00 15 1009.8
20260504231036 22 316 9.7 19.3 0.00 0.00 0.00 14 1009.9
20260504230539 22 352 6.4 17.7 0.00 0.00 0.00 14 1010.0
20260504230105 22 308 8.0 17.7 0.00 0.00 0.00 14 1010.1
20260504225536 22 275 8.0 16.1 0.00 0.00 0.00 14 1010.1
20260504225037 22 268 8.0 17.7 0.00 0.00 0.00 14 1010.1
20260504224552 22 282 3.2 20.9 0.00 0.00 0.00 14 1010.2
20260504224035 22 319 8.0 20.9 0.00 0.00 0.00 14 1010.3
20260504223535 22 287 9.7 20.9 0.00 0.00 0.00 14 1010.4
20260504223049 22 322 9.7 24.1 0.00 0.00 0.00 13 1010.4
20260504222536 22 309 11.3 24.1 0.00 0.00 0.00 14 1010.5
20260504222036 22 294 4.8 19.3 0.00 0.00 0.00 13 1010.3
20260504221559 22 288 6.4 19.3 0.00 0.00 0.00 13 1010.5
20260504221037 22 273 6.4 17.7 0.00 0.00 0.00 13 1010.4
20260504220536 22 289 6.4 20.9 0.00 0.00 0.00 12 1010.5
20260504220058 22 269 9.7 29.0 0.00 0.00 0.00 12 1010.6
20260504215536 22 281 11.3 29.0 0.00 0.00 0.00 12 1010.7
20260504215035 22 5 9.7 32.2 0.00 0.00 0.00 12 1010.8
20260504214548 22 266 14.5 33.8 0.00 0.00 0.00 10 1010.9
20260504214036 22 298 9.7 33.8 0.00 0.00 0.00 10 1010.9
20260504213535 22 302 8.0 33.8 0.00 0.00 0.00 10 1011.0
20260504213049 22 305 12.9 33.8 0.00 0.00 0.00 11 1010.9
20260504212539 22 309 9.7 27.4 0.00 0.00 0.00 10 1010.9
20260504212036 22 327 14.5 30.6 0.00 0.00 0.00 10 1010.9
20260504211550 22 284 11.3 30.6 0.00 0.00 0.00 9 1011.0
20260504211040 22 243 11.3 29.0 0.00 0.00 0.00 9 1011.0
20260504210541 23 263 19.3 29.0 0.00 0.00 0.00 8 1011.1
20260504210054 23 300 9.7 27.4 0.00 0.00 0.00 9 1011.1
20260504205540 23 290 12.9 27.4 0.00 0.00 0.00 9 1011.2
20260504205038 22 306 11.3 29.0 0.00 0.00 0.00 10 1011.1
20260504204555 22 286 14.5 33.8 0.00 0.00 0.00 10 1011.1
20260504204041 22 266 16.1 33.8 0.00 0.00 0.00 11 1011.2
20260504203539 23 266 12.9 29.0 0.00 0.00 0.00 11 1011.3
20260504203103 22 253 14.5 27.4 0.00 0.00 0.00 12 1011.3
20260504202539 22 271 14.5 38.6 0.00 0.00 0.00 11 1011.4
20260504202039 23 254 19.3 38.6 0.00 0.00 0.00 11 1011.4
20260504201554 23 233 16.1 27.4 0.00 0.00 0.00 11 1011.1
20260504201038 23 300 14.5 27.4 0.00 0.00 0.00 11 1011.2
20260504200538 23 281 14.5 33.8 0.00 0.00 0.00 11 1011.3
20260504200053 23 241 12.9 33.8 0.00 0.00 0.00 13 1011.1
20260504195539 23 238 12.9 33.8 0.00 0.00 0.00 14 1011.1
20260504195038 23 257 12.9 33.8 0.00 0.00 0.00 14 1011.2
20260504194552 23 259 20.9 37.0 0.00 0.00 0.00 12 1011.3
20260504194039 22 311 19.3 37.0 0.00 0.00 0.00 13 1011.4
20260504193539 22 221 16.1 37.0 0.00 0.00 0.00 14 1011.4
20260504193049 22 225 20.9 33.8 0.00 0.00 0.00 13 1011.4
20260504192538 22 188 12.9 32.2 0.00 0.00 0.00 14 1011.4
20260504192036 22 179 16.1 29.0 0.00 0.00 0.00 14 1011.6
20260504191600 22 162 16.1 32.2 0.00 0.00 0.00 14 1011.5
20260504191040 22 257 14.5 35.4 0.00 0.00 0.00 15 1011.6
20260504190539 22 251 17.7 35.4 0.00 0.00 0.00 14 1011.7
20260504190051 22 238 16.1 35.4 0.00 0.00 0.00 15 1011.6
20260504185535 22 264 16.1 27.4 0.00 0.00 0.00 14 1011.8
20260504185035 22 241 6.4 27.4 0.00 0.00 0.00 15 1012.0
20260504184550 22 223 11.3 29.0 0.00 0.00 0.00 15 1012.0
20260504184042 22 302 11.3 29.0 0.00 0.00 0.00 14 1011.9
20260504183537 22 254 9.7 29.0 0.00 0.00 0.00 14 1011.8
20260504183047 22 216 8.0 17.7 0.00 0.00 0.00 16 1012.1
20260504182539 22 222 9.7 24.1 0.00 0.00 0.00 17 1012.3
20260504182039 22 233 9.7 27.4 0.00 0.00 0.00 18 1012.3
20260504181555 21 233 12.9 27.4 0.00 0.00 0.00 17 1012.4
20260504181039 21 269 14.5 29.0 0.00 0.00 0.00 17 1012.8
20260504180536 21 246 14.5 30.6 0.00 0.00 0.00 15 1012.7
20260504180050 22 215 16.1 30.6 0.00 0.00 0.00 14 1012.8
20260504175535 21 174 14.5 29.0 0.00 0.00 0.00 16 1012.9
20260504175036 22 237 14.5 27.4 0.00 0.00 0.00 16 1012.9
20260504174554 22 234 12.9 27.4 0.00 0.00 0.00 18 1013.1
20260504174037 21 271 14.5 27.4 0.00 0.00 0.00 17 1013.0
20260504173536 21 217 11.3 20.9 0.00 0.00 0.00 20 1013.0
20260504173053 21 201 6.4 17.7 0.00 0.00 0.00 19 1012.9
20260504172535 21 244 6.4 17.7 0.00 0.00 0.00 18 1013.1
20260504172036 20 171 4.8 12.9 0.00 0.00 0.00 24 1013.3